Location: Mahannah Oil Field
(37.4664°N, 96.6003°W)
Time: 01:42:51
(UTC+00:00)

deb Explorer IX - Pass Details

Date: 22 January 2021
Orbit: 537 x 1102 km, 38.8° (Epoch: 25 February)

Event Time Altitude Azimuth Distance (km) Brightness Sun altitude
Rises 02:00:51 0° 257° (WSW) 3,535 ? -28.0°
Reaches altitude 10° 02:03:38 10° 258° (WSW) 2,501 ? -28.5°
Enters shadow 02:08:45 67° 261° (W) 841 ? -29.5°
Maximum altitude 02:09:32 89° 347° (NNW) 766 - -29.7°
Drops below altitude 10° 02:14:30 10° 79° (E) 2,115 - -30.7°
Sets 02:16:41 0° 79° (E) 2,954 - -31.1°
